Location: Dobie Observatory
(42.2815°N, 84.4219°W)
Time: 10:35:58
(UTC-04:00)

Tiangong - Pass Details

Date: 18 January 2026
Orbit: 381 x 392 km, 41.5° (Epoch: 9 June)

Event Time Altitude Azimuth Distance (km) Brightness Sun altitude
Exits shadow 05:00:23 - 114° (ESE) 1,808 2.0 -33.3°
Enters shadow 05:59:08 -66° 251° (WSW) 12,064 5.4 -22.5°
Maximum altitude 06:34:55 32° 158° (SSE) 683 -0.6 -16.0°
